Flag for U.S.A. Weather past 2 weeks in San Luis Obispo, California, U.S.A.

Now
73 °F

Sunny.


Feels Like: 76 °F
Forecast: 59 / 76 °F
Wind: 5 mph from East

Location: San Luis Obispo County-Mc Chesney Field

Current Time: Jul 28, 2014 at 11:51:48 AM

Latest Report: Jul 28, 2014 at 10:56 AM


Visibility: 10 mi

Pressure: 30.08 "Hg

Humidity: 64%

Dew point: 60 °F

Location of San Luis ObispoLocation

Historic Weather in San Luis Obispo — Graph

°F

San Luis Obispo temperature yesterday

Maximum temperature yesterday: 83 °F (at 2:56 PM)
Minimum temperature yesterday: 57 °F (at 6:56 AM)
Average temperature yesterday: 67 °F

Past Weeks' High & Low Weather Summary

 TemperatureHumidityPressure
High83 °F (Jul 27, 2:56 PM)100% (Jul 25, 7:56 AM)30.10 "Hg (Jul 25, 7:56 AM)
Low56 °F (Jul 17, 4:56 AM)42% (Jul 23, 10:56 AM)29.82 "Hg (Jul 24, 5:56 PM)
Average67 °F74%29.97 "Hg
* Reported Jul 13 9:56 AM — Jul 28 9:56 AM, San Luis Obispo, Weather by CustomWeather, © 2014

Note: Actual official high and low records may vary slightly from our data, if they occured in-between our weather recording intervals... More about our weather records

Advertising

San Luis Obispo weather history for previous 24 hours

 ConditionsComfort  
Time TempWeatherWind HumidityBarometerVisibility
9:56 AM
Jul 28
69 °FSunny.No wind73%30.08 "Hg10 mi
8:56 AM67 °FOvercast.No wind79%30.06 "Hg10 mi
7:56 AM65 °FOvercast.No wind81%30.05 "Hg10 mi
6:56 AM63 °FOvercast.No wind87%30.04 "Hg10 mi
5:56 AM62 °FOvercast.No wind90%30.01 "Hg9 mi
4:56 AM62 °FClear.5 mph90%30.01 "Hg9 mi
3:56 AM62 °FClear.6 mph90%29.99 "Hg9 mi
2:56 AM63 °FClear.3 mph87%29.99 "Hg9 mi
1:56 AM63 °FLight rain. Passing clouds.5 mph87%29.98 "Hg10 mi
12:56 AM63 °FClear.7 mph87%29.98 "Hg9 mi
11:56 PM
Jul 27
63 °FClear.6 mph87%30.00 "Hg10 mi
10:56 PM63 °FClear.7 mph87%29.99 "Hg10 mi
9:56 PM63 °FClear.8 mph87%30.00 "Hg10 mi
8:56 PM65 °FSunny.6 mph81%29.98 "Hg10 mi
7:56 PM69 °FSunny.6 mph70%29.97 "Hg10 mi
6:56 PM74 °FSunny.6 mph56%29.97 "Hg10 mi
5:56 PM76 °FSunny.7 mph56%29.97 "Hg10 mi
4:56 PM77 °FSunny.9 mph56%29.98 "Hg10 mi
3:56 PM80 °FSunny.10 mph44%29.97 "Hg10 mi
2:56 PM83 °FSunny.8 mph44%29.96 "Hg10 mi
1:56 PM79 °FSunny.6 mph50%29.98 "Hg10 mi
12:56 PM78 °FSunny.12 mph52%29.98 "Hg10 mi
11:56 AM78 °FSunny.5 mph52%29.98 "Hg10 mi
Weather by CustomWeather, © 2014

See weather overviewHow to use our weather pages